Weather History for Salida, CO

Change the Weather History Date:

Friday, February 1, 2013

  Actual Average (KGUC) Record (KGUC)
Temperature  
Mean Temperature 33 °F -  
Max Temperature 43 °F 23 °F 33 °F (2006)
Min Temperature 23 °F 0 °F -20 °F (2002)
Degree Days  
Heating Degree Days 32    
Moisture  
Dew Point 11 °F    
Average Humidity 36    
Maximum Humidity 60    
Minimum Humidity 25    
Precipitation  
Precipitation 0.00 in - - ()
Sea Level Pressure  
Sea Level Pressure 30.23 in    
Wind  
Wind Speed 12 mph (West)    
Max Wind Speed 29 mph    
Max Gust Speed 44 mph    
Visibility 10 miles    
Events      
Averages and records for this station are not official NWS values.
T = Trace of Precipitation, MM = Missing Value Source: NWS Daily Summary

Daily Weather History Graph

Daily Weather History Graph

Search for Another Location

Airport:

Trip Planner

Search our weather history database for the weather conditions in past years. The results will help you decide how hot, cold, wet, or windy it might be!

Date:

Astronomy

Feb. 01, 2013 Rise Set
Actual Time 7:09 AM MST 5:26 PM MST
Civil Twilight 6:41 AM MST 5:54 PM MST
Nautical Twilight 6:09 AM MST 6:26 PM MST
Astronomical Twilight 5:38 AM MST 6:57 PM MST
Moon 11:31 PM MST (2/1) 9:49 AM MST (2/1)
Length of Visible Light 11h 13m
Length of Day
10h 17m
Waning Gibbous, 69% of the Moon is Illuminated
Feb 1
Waning Gibbous
Feb 3
Last Quarter
Feb 10
New
Feb 17
First Quarter
Feb 25
Full

Hourly Weather History & Observations

Time (MST) Temp. Windchill Dew Point Humidity Pressure Visibility Wind Dir Wind Speed Gust Speed Precip Events Conditions
12:15 AM 31.5 °F 24.9 °F 11.7 °F 44% 30.24 in 10.0 mi West 6.9 mph - N/A   Clear
12:35 AM 30.9 °F 24.3 °F 11.8 °F 45% 30.24 in 10.0 mi West 6.9 mph - N/A   Clear
12:55 AM 29.5 °F 22.5 °F 11.1 °F 46% 30.24 in 10.0 mi WNW 6.9 mph - N/A   Clear
1:15 AM 29.3 °F 25.6 °F 11.7 °F 48% 30.23 in 10.0 mi WSW 3.5 mph - N/A   Clear
1:35 AM 28.9 °F 23.9 °F 11.7 °F 49% 30.23 in 10.0 mi WNW 4.6 mph - N/A   Clear
1:55 AM 28.2 °F 22.0 °F 11.1 °F 49% 30.23 in 10.0 mi NNW 5.8 mph - N/A   Clear
2:15 AM 29.3 °F - 11.5 °F 47% 30.22 in 10.0 mi Calm Calm - N/A   Clear
2:35 AM 30.6 °F 23.1 °F 13.1 °F 48% 30.22 in 10.0 mi SW 8.1 mph - N/A   Clear
2:55 AM 30.0 °F 23.2 °F 12.9 °F 49% 30.22 in 10.0 mi SW 6.9 mph - N/A   Clear
3:15 AM 30.9 °F 21.7 °F 12.9 °F 47% 30.21 in 10.0 mi WSW 11.5 mph 17.3 mph N/A   Clear
3:35 AM 30.9 °F 22.8 °F 12.9 °F 47% 30.21 in 10.0 mi WSW 9.2 mph 19.6 mph N/A   Clear
4:15 AM 29.5 °F - 12.0 °F 48% 30.21 in 10.0 mi Calm Calm - N/A   Clear
4:35 AM 28.2 °F 18.9 °F 12.0 °F 51% 30.20 in 10.0 mi WSW 10.4 mph - N/A   Clear
5:15 AM 32.0 °F 21.6 °F 13.3 °F 46% 30.20 in 10.0 mi WSW 15.0 mph 27.6 mph N/A   Clear
5:35 AM 28.6 °F 22.4 °F 10.9 °F 48% 30.20 in 10.0 mi WNW 5.8 mph - N/A   Clear
6:15 AM 28.8 °F 20.2 °F 12.7 °F 51% 30.20 in 10.0 mi WSW 9.2 mph - N/A   Clear
6:35 AM 23.0 °F 13.9 °F 10.9 °F 60% 30.20 in 10.0 mi West 8.1 mph - N/A   Clear
7:15 AM 29.8 °F 23.0 °F 12.7 °F 49% 30.22 in 10.0 mi West 6.9 mph - N/A   Clear
7:35 AM 33.3 °F 23.7 °F 12.7 °F 43% 30.23 in 10.0 mi WNW 13.8 mph 26.5 mph N/A   Scattered Clouds
7:55 AM 33.6 °F 27.5 °F 12.9 °F 43% 30.24 in 10.0 mi West 6.9 mph - N/A   Clear
8:15 AM 33.8 °F 29.6 °F 13.1 °F 43% 30.24 in 10.0 mi WSW 4.6 mph - N/A   Clear
8:35 AM 32.0 °F 26.4 °F 12.4 °F 44% 30.24 in 10.0 mi South 5.8 mph - N/A   Clear
8:55 AM 33.3 °F 28.9 °F 12.4 °F 42% 30.24 in 10.0 mi West 4.6 mph - N/A   Scattered Clouds
9:15 AM 37.9 °F 30.0 °F 11.5 °F 34% 30.23 in 10.0 mi West 12.7 mph 25.3 mph N/A   Scattered Clouds
9:35 AM 39.2 °F 28.7 °F 10.6 °F 31% 30.24 in 10.0 mi WSW 23.0 mph 33.4 mph N/A   Scattered Clouds
9:55 AM 39.6 °F 29.0 °F 10.0 °F 30% 30.24 in 10.0 mi West 24.2 mph 34.5 mph N/A   Clear
10:15 AM 39.6 °F 29.0 °F 9.5 °F 29% 30.24 in 10.0 mi West 24.2 mph 34.5 mph N/A   Clear
10:35 AM 40.1 °F 31.0 °F 9.7 °F 29% 30.23 in 10.0 mi West 18.4 mph 36.8 mph N/A   Clear
10:55 AM 40.3 °F 29.7 °F 9.9 °F 29% 30.23 in 10.0 mi West 25.3 mph 35.7 mph N/A   Clear
11:15 AM 41.0 °F 30.9 °F 10.0 °F 28% 30.22 in 10.0 mi West 24.2 mph 34.5 mph N/A   Clear
11:35 AM 40.8 °F 29.8 °F 9.3 °F 27% 30.22 in 10.0 mi West 28.8 mph 39.1 mph N/A   Clear
12:15 PM 41.4 °F 32.4 °F 9.5 °F 27% 30.21 in 10.0 mi West 19.6 mph 35.7 mph N/A   Clear
12:35 PM 43.0 °F 34.0 °F 9.1 °F 25% 30.20 in 10.0 mi West 21.9 mph 38.0 mph N/A   Clear
12:55 PM 43.2 °F 34.7 °F 9.7 °F 26% 30.19 in 10.0 mi West 19.6 mph 38.0 mph N/A   Clear
1:15 PM 43.0 °F 34.8 °F 10.4 °F 27% 30.19 in 10.0 mi West 18.4 mph 28.8 mph N/A   Scattered Clouds
1:35 PM 42.8 °F 36.2 °F 9.9 °F 26% 30.19 in 10.0 mi West 12.7 mph 31.1 mph N/A   Clear
1:55 PM 43.2 °F 34.7 °F 9.3 °F 25% 30.20 in 10.0 mi WNW 19.6 mph 33.4 mph N/A   Clear
2:15 PM 43.9 °F 37.5 °F 10.0 °F 25% 30.19 in 10.0 mi West 12.7 mph 19.6 mph N/A   Clear
2:35 PM 43.7 °F 36.0 °F 10.2 °F 26% 30.20 in 10.0 mi West 17.3 mph 31.1 mph N/A   Clear
2:55 PM 43.0 °F 35.4 °F 10.6 °F 27% 30.20 in 10.0 mi WSW 16.1 mph 27.6 mph N/A   Clear
3:15 PM 43.3 °F 34.7 °F 10.4 °F 26% 30.20 in 10.0 mi West 20.7 mph 35.7 mph N/A   Clear
3:35 PM 42.8 °F 33.1 °F 9.9 °F 26% 30.20 in 10.0 mi West 25.3 mph 32.2 mph N/A   Scattered Clouds
3:55 PM 42.6 °F 34.9 °F 9.3 °F 26% 30.20 in 10.0 mi WSW 16.1 mph 27.6 mph N/A   Scattered Clouds
4:15 PM 41.7 °F 33.4 °F 9.9 °F 27% 30.21 in 10.0 mi West 17.3 mph 28.8 mph N/A   Clear
4:35 PM 41.0 °F 32.5 °F 10.2 °F 28% 30.21 in 10.0 mi WSW 17.3 mph 26.5 mph N/A   Clear
4:55 PM 39.4 °F 28.5 °F 10.8 °F 31% 30.22 in 10.0 mi West 25.3 mph 35.7 mph N/A   Clear
5:15 PM 38.5 °F 27.3 °F 10.4 °F 32% 30.21 in 10.0 mi West 25.3 mph 33.4 mph N/A   Clear
5:35 PM 37.8 °F 29.0 °F 11.1 °F 33% 30.22 in 10.0 mi West 15.0 mph 25.3 mph N/A   Clear
5:55 PM 37.4 °F 29.3 °F 11.7 °F 35% 30.24 in 10.0 mi West 12.7 mph 21.9 mph N/A   Clear
6:15 PM 37.4 °F 26.1 °F 11.3 °F 34% 30.22 in 10.0 mi West 24.2 mph 31.1 mph N/A   Clear
6:35 PM 37.4 °F 27.8 °F 11.3 °F 34% 30.23 in 10.0 mi West 17.3 mph 36.8 mph N/A   Clear
6:55 PM 37.4 °F 26.1 °F 10.6 °F 33% 30.25 in 10.0 mi West 24.2 mph 43.7 mph N/A   Clear
7:15 PM 36.9 °F 26.8 °F 10.2 °F 33% 30.26 in 10.0 mi West 18.4 mph 34.5 mph N/A   Clear
7:35 PM 36.7 °F 25.7 °F 10.6 °F 34% 30.26 in 10.0 mi West 21.9 mph 31.1 mph N/A   Clear
7:55 PM 36.7 °F 24.2 °F 10.4 °F 34% 30.27 in 10.0 mi West 28.8 mph 35.7 mph N/A   Clear
8:15 PM 36.7 °F 25.4 °F 10.2 °F 34% 30.27 in 10.0 mi West 23.0 mph 33.4 mph N/A   Clear
8:35 PM 36.5 °F 25.4 °F 9.5 °F 33% 30.27 in 10.0 mi West 21.9 mph 32.2 mph N/A   Clear
8:55 PM 36.5 °F 24.7 °F 9.5 °F 33% 30.27 in 10.0 mi West 25.3 mph 31.1 mph N/A   Clear
9:15 PM 36.0 °F 25.6 °F 9.3 °F 33% 30.27 in 10.0 mi WSW 18.4 mph 33.4 mph N/A   Clear
9:35 PM 35.8 °F 26.9 °F 8.8 °F 33% 30.28 in 10.0 mi West 13.8 mph 28.8 mph N/A   Clear
9:55 PM 36.0 °F 25.0 °F 9.1 °F 33% 30.29 in 10.0 mi West 20.7 mph 28.8 mph N/A   Clear
10:15 PM 36.0 °F 27.1 °F 8.6 °F 32% 30.29 in 10.0 mi WSW 13.8 mph 21.9 mph N/A   Clear
10:35 PM 35.2 °F 26.6 °F 9.0 °F 34% 30.30 in 10.0 mi West 12.7 mph 23.0 mph N/A   Clear
10:55 PM 34.9 °F 25.3 °F 8.6 °F 34% 30.31 in 10.0 mi West 15.0 mph 24.2 mph N/A   Clear
11:15 PM 35.2 °F 31.2 °F 8.4 °F 33% 30.32 in 10.0 mi WNW 4.6 mph 17.3 mph N/A   Clear
11:35 PM 34.9 °F 32.0 °F 7.5 °F 32% 30.32 in 10.0 mi NW 3.5 mph - N/A   Clear
11:55 PM 34.2 °F 28.2 °F 7.0 °F 32% 30.32 in 10.0 mi West 6.9 mph - N/A   Clear